Location: Reeth
(54.3881°N, 1.9432°W)
Time: 15:27:00
(UTC+01:00)

Envisat - Visible Passes

Search period start: 20 September 2018 00:00
Search period end: 30 September 2018 00:00
Orbit: 764 x 766 km, 98.2° (Epoch: 20 September)

Date Brightness Start Highest point End Pass type
(mag) Time Alt. Az. Time Alt. Az. Time Alt. Az.
20 Sep 5.3 21:12:23 10° SW 21:16:26 24° W 21:20:31 10° NW visible
21 Sep 4.2 20:34:32 10° S 20:39:22 44° W 20:44:15 10° NNW visible
22 Sep 3.1 19:57:24 10° SSE 20:02:29 82° WSW 20:07:37 10° NNW visible
22 Sep 5.8 21:39:25 10° WSW 21:42:21 15° W 21:45:18 10° NW visible
23 Sep 5.0 21:00:47 10° SSW 21:05:09 28° W 21:09:32 10° NNW visible
24 Sep 3.9 20:23:10 10° S 20:28:08 53° W 20:33:08 10° NNW visible
25 Sep 3.0 19:46:14 10° SSE 19:51:19 84° ENE 19:56:26 10° NNW visible
25 Sep 5.6 21:27:32 10° SW 21:31:01 18° W 21:34:31 10° NW visible
26 Sep 4.7 20:49:16 10° SSW 20:53:52 34° W 20:58:30 10° NNW visible
27 Sep 3.5 20:11:52 10° S 20:16:55 63° WSW 20:21:59 10° NNW visible
27 Sep 6.0 21:55:18 10° W 21:57:00 11° W 21:58:42 10° WNW visible
28 Sep 3.0 19:35:06 10° SSE 19:40:08 71° ENE 19:45:14 10° NNW visible
28 Sep 5.4 21:15:47 10° SW 21:19:42 22° W 21:23:38 10° NW visible
29 Sep 4.3 20:37:49 10° SSW 20:42:36 40° W 20:47:25 10° NNW visible
